Renton, WA

11:34 PM PDT on October 21, 2017 (GMT -0700)
Renton Municipal

Weather History for KRNT - June, 2014

Change the Weather History Date:

Sunday, June 8, 2014

  Actual Average Record
Temperature  
Mean Temperature 64 °F -  
Max Temperature 75 °F 67 °F 86 °F (2015)
Min Temperature 54 °F 51 °F 44 °F (2002)
Growing Degree Days 14 (Base 50)    
Moisture  
Dew Point 54 °F    
Average Humidity 73    
Maximum Humidity 90    
Minimum Humidity 50    
Precipitation  
Precipitation 0.00 in - - ()
Sea Level Pressure  
Sea Level Pressure 30.18 in    
Wind  
Wind Speed 5 mph (SSW)    
Max Wind Speed 9 mph    
Max Gust Speed -    
Visibility 9 miles    
Events      
Averages and records for this station are not official NWS values.
T = Trace of Precipitation, MM = Missing Value Source: NWS Daily Summary

Daily Weather History Graph

Daily Weather History Graph

Search for Another Location

Airport or City:

Trip Planner

Search our weather history database for the weather conditions in past years. The results will help you decide how hot, cold, wet, or windy it might be!

Date:

Astronomy

Jun. 08, 2014 Rise Set
Actual Time 5:12 AM PDT 9:03 PM PDT
Civil Twilight 4:32 AM PDT 9:44 PM PDT
Nautical Twilight 3:37 AM PDT 10:38 PM PDT
Astronomical Twilight 2:16 AM PDT 12:01 AM PDT
Moon 4:10 PM PDT (6/8) 2:28 AM PDT (6/8)
Length of Visible Light 17h 11m
Length of Day
15h 51m
Waxing Gibbous, 78% of the Moon is Illuminated
Jun 8
Waxing Gibbous
Jun 12
Full
Jun 19
Last Quarter
Jun 27
New
Jul 5
First Quarter

Hourly Weather History & Observations

Time (PDT) Temp. Dew Point Humidity Pressure Visibility Wind Dir Wind Speed Gust Speed Precip Events Conditions
12:53 AM 62.1 °F 53.1 °F 72% 30.19 in 10.0 mi NW 9.2 mph - N/A   Clear
1:53 AM 61.0 °F 53.1 °F 75% 30.20 in 10.0 mi NW 5.8 mph - N/A   Clear
2:53 AM 59.0 °F 54.0 °F 83% 30.20 in 10.0 mi North 3.5 mph - N/A   Clear
3:53 AM 55.0 °F 52.0 °F 89% 30.21 in 10.0 mi ESE 3.5 mph - N/A   Clear
4:53 AM 55.0 °F 51.1 °F 86% 30.22 in 10.0 mi ESE 3.5 mph - N/A   Clear
5:53 AM 54.0 °F 51.1 °F 90% 30.23 in 9.0 mi Calm Calm - N/A   Clear
6:34 AM 57.0 °F 54.0 °F 89% 30.22 in 8.0 mi South 4.6 mph - N/A   Overcast
6:44 AM 57.9 °F 54.0 °F 87% 30.22 in 8.0 mi South 4.6 mph - N/A   Overcast
6:53 AM 57.9 °F 54.0 °F 87% 30.23 in 8.0 mi South 4.6 mph - N/A   Overcast
7:11 AM 57.9 °F 54.0 °F 87% 30.22 in 8.0 mi SSE 5.8 mph - N/A   Overcast
7:53 AM 57.9 °F 54.0 °F 87% 30.24 in 8.0 mi South 6.9 mph - N/A   Overcast
8:53 AM 57.9 °F 54.0 °F 87% 30.24 in 8.0 mi Variable 3.5 mph - N/A   Overcast
9:53 AM 59.0 °F 54.0 °F 83% 30.24 in 7.0 mi South 6.9 mph - N/A   Overcast
10:53 AM 60.1 °F 54.0 °F 80% 30.23 in 8.0 mi Variable 3.5 mph - N/A   Overcast
11:48 AM 60.8 °F 53.6 °F 77% 30.21 in 8.0 mi SSE 4.6 mph - N/A   Overcast
11:53 AM 62.1 °F 54.0 °F 75% 30.22 in 7.0 mi SSE 4.6 mph - N/A   Overcast
12:16 PM 64.0 °F 54.0 °F 70% 30.20 in 8.0 mi SSE 6.9 mph - N/A   Scattered Clouds
12:53 PM 64.9 °F 54.0 °F 68% 30.21 in 9.0 mi Variable 6.9 mph - N/A   Clear
1:53 PM 68.0 °F 55.0 °F 63% 30.19 in 10.0 mi Variable 6.9 mph - N/A   Clear
2:53 PM 71.1 °F 55.0 °F 57% 30.17 in 10.0 mi NW 5.8 mph - N/A   Scattered Clouds
3:53 PM 73.0 °F 55.0 °F 53% 30.14 in 10.0 mi NNW 5.8 mph - N/A   Clear
4:53 PM 73.9 °F 55.0 °F 52% 30.12 in 10.0 mi NNW 4.6 mph - N/A   Clear
5:53 PM 75.0 °F 55.0 °F 50% 30.11 in 10.0 mi NNW 4.6 mph - N/A   Clear
6:53 PM 73.9 °F 54.0 °F 50% 30.09 in 10.0 mi South 5.8 mph - N/A   Partly Cloudy
7:53 PM 73.0 °F 55.0 °F 53% 30.08 in 10.0 mi South 3.5 mph - N/A   Mostly Cloudy
8:53 PM 68.0 °F 55.9 °F 65% 30.09 in 10.0 mi NW 9.2 mph - N/A   Overcast
9:53 PM 66.0 °F 55.0 °F 68% 30.10 in 10.0 mi Variable 3.5 mph - N/A   Overcast
10:53 PM 63.0 °F 54.0 °F 72% 30.12 in 10.0 mi Variable 3.5 mph - N/A   Overcast
11:53 PM 62.1 °F 53.1 °F 72% 30.12 in 10.0 mi Variable 3.5 mph - N/A   Overcast